Regional Weather Roundup
Issued by NWS Sioux Falls, SD

Home | Current Version | Previous Version | Text Only | Print | Product List | Glossary Off
Versions: 1 2 3 4 5 6 7 8 9 10 11 12 13 14 15 16 17 18 19 20 21 22 23 24 25 26 27 28 29 30 31 32 33 34 35 36 37 38 39 40 41 42 43 44 45 46 47 48 49 50

000
ASUS43 KFSD 210510
RWRFSD

WEATHER ROUNDUP FOR SE SOUTH DAKOTA/SW MINNESOTA/NW IOWA
NATIONAL WEATHER SERVICE SIOUX FALLS SD
1200 AM CDT THU AUG 21 2014

NOTE: "FAIR" INDICATES FEW OR NO CLOUDS BELOW 12,000 FEET WITH NO
SIGNIFICANT WEATHER AND OR OBSTRUCTIONS TO VISIBILITY.


SDZ038>040-050-052>070-210600-
SOUTHEAST SOUTH DAKOTA

CITY           SKY/WX    TMP DP  RH WIND       PRES   REMARKS
CHAMBERLAIN    CLEAR     73  72  96 E6        29.68S
HURON          PTCLDY    75  70  84 SE8       29.69S
MADISON        FAIR      72  72 100 SE8       29.76S
MITCHELL       CLEAR     75  73  93 SE7       29.70R
SIOUX FALLS    MOCLDY    76  72  87 S8        29.74F
WINNER         FAIR      79  72  79 S12       29.68F
YANKTON        PTCLDY    77  73  88 SE9       29.70F
$$

MNZ071-072-080-081-089-090-097-098-210600-
SOUTHWEST MINNESOTA

CITY           SKY/WX    TMP DP  RH WIND       PRES   REMARKS
FAIRMONT       CLOUDY    70  64  83 SE8       29.83F
JACKSON        CLOUDY    70  68  94 SE7       29.82S
LUVERNE        PTCLDY    73  70  88 SE7       29.77F
MARSHALL       PTCLDY    72  66  83 SE14      29.77F
MONTEVIDEO     PTCLDY    72  70  94 S12       29.79F
PIPESTONE      MOCLDY    73  70  88 SE8       29.77F THUNDER
REDWOOD FALLS  PTCLDY    73  69  87 SE10      29.80F
TRACY          MOCLDY    71  69  91 SE6       29.80S
WINDOM         CLOUDY    72  68  88 E7        29.82S
WORTHINGTON    MOCLDY    70  12  11 SE8       29.80F
$$

IAZ001>003-012>014-020>022-031-032-NEZ013-014-SDZ071-210600-
NORTHWEST IOWA

CITY           SKY/WX    TMP DP  RH WIND       PRES   REMARKS
CHEROKEE       CLEAR     73  73 100 SE5       29.79F
DENISON        CLEAR     77  75  94 SE15G22   29.78F
ESTHERVILLE    CLOUDY    69  68  96 SE8       29.82F
LE MARS        PTCLDY    77  73  88 SE9G16    29.76F
ORANGE CITY    PTCLDY    75  72  88 SE5       29.77F
SHELDON        PTCLDY    73  72  94 SE12G17   29.77F
SIOUX CITY     PTCLDY    77  73  87 SE9       29.75F
SPENCER        PTCLDY    72  70  93 SE8       29.80F
STORM LAKE     PTCLDY    72  72 100 SE7       29.82F FOG
$$

ABBREVIATIONS USED IN REMARKS
   TC - TEMPERATURE IN CELSIUS
  WCI - WIND CHILL INDEX
   HX - HEAT INDEX
  VSB - VISIBILITY




USA.gov is the U.S. government's official web portal to all federal, state and local government web resources and services.